AGJ812 LGIR-LGRP

Flight info

Callsign AGJ812
Flight time 0h 35m
Altitude 23000
Route DELAV N136 LOKNA
Aircraft A319/M-SDE3FGHIRWY/LB1

Departure

Time 2026-05-06 14:25
Airport Heraklion International Nikos Kazantzakis Airport (LGIR)

Arrival

Time 2026-05-06 15:00
Airport Rhodes International Airport "Diagoras" (LGRP)
Time Latitude Longitude Altitude Speed Heading
2026-05-06 14:09 35.33813 25.17668 91 ft 0 kts 275°
2026-05-06 14:13 35.33813 25.17669 91 ft 0 kts 275°
2026-05-06 14:20 35.33814 25.17657 92 ft 5 kts 275°
2026-05-06 14:20 35.33843 25.17621 91 ft 9 kts 357°
2026-05-06 14:20 35.33901 25.17663 91 ft 13 kts 83°
2026-05-06 14:20 35.33891 25.17800 92 ft 19 kts 95°
2026-05-06 14:21 35.33880 25.17969 92 ft 19 kts 95°
2026-05-06 14:21 35.33870 25.18106 92 ft 15 kts 95°
2026-05-06 14:21 35.33861 25.18256 93 ft 21 kts 94°
2026-05-06 14:21 35.33847 25.18429 91 ft 22 kts 95°
2026-05-06 14:22 35.33834 25.18600 90 ft 18 kts 95°
2026-05-06 14:22 35.33824 25.18776 92 ft 20 kts 95°
2026-05-06 14:22 35.33819 25.18837 90 ft 0 kts 95°
2026-05-06 14:23 35.33819 25.18846 92 ft 3 kts 95°
2026-05-06 14:23 35.33815 25.18895 90 ft 8 kts 95°
2026-05-06 14:23 35.33843 25.18971 89 ft 12 kts 54°
2026-05-06 14:24 35.33887 25.19035 89 ft 7 kts 19°
2026-05-06 14:24 35.33910 25.18973 89 ft 13 kts 273°
2026-05-06 14:24 35.33931 25.18639 90 ft 72 kts 275°
2026-05-06 14:24 35.33991 25.17779 93 ft 130 kts 275°
2026-05-06 14:25 35.34081 25.16515 360 ft 154 kts 277°
2026-05-06 14:25 35.34247 25.15214 995 ft 158 kts 296°
2026-05-06 14:25 35.35009 25.14269 1677 ft 160 kts 334°
2026-05-06 14:25 35.36147 25.14059 2131 ft 180 kts 10°
2026-05-06 14:26 35.37244 25.14951 2442 ft 209 kts 54°
2026-05-06 14:26 35.37551 25.16748 2965 ft 229 kts 96°
2026-05-06 14:26 35.37145 25.18629 3963 ft 228 kts 109°
2026-05-06 14:26 35.36546 25.20439 4976 ft 230 kts 113°
2026-05-06 14:27 35.35927 25.22262 5915 ft 234 kts 105°
2026-05-06 14:27 35.35927 25.24229 6782 ft 235 kts 70°
2026-05-06 14:27 35.36537 25.26084 7713 ft 236 kts 64°
2026-05-06 14:27 35.37235 25.28014 8263 ft 260 kts 63°
2026-05-06 14:28 35.38015 25.30119 8874 ft 279 kts 63°
2026-05-06 14:28 35.38829 25.32313 9773 ft 286 kts 63°
2026-05-06 14:28 35.39658 25.34563 10504 ft 299 kts 63°
2026-05-06 14:28 35.40547 25.36982 10846 ft 323 kts 63°
2026-05-06 14:29 35.41492 25.39569 11287 ft 340 kts 63°
2026-05-06 14:29 35.42466 25.42251 12004 ft 347 kts 63°
2026-05-06 14:29 35.43452 25.44980 12760 ft 353 kts 63°
2026-05-06 14:29 35.44451 25.47747 13516 ft 358 kts 63°
2026-05-06 14:30 35.45455 25.50527 14199 ft 364 kts 63°
2026-05-06 14:30 35.46483 25.53377 14874 ft 368 kts 63°
2026-05-06 14:30 35.47528 25.56266 15555 ft 372 kts 63°
2026-05-06 14:30 35.48574 25.59151 16231 ft 376 kts 63°
2026-05-06 14:31 35.49642 25.62101 16917 ft 380 kts 63°
2026-05-06 14:31 35.50719 25.65079 17599 ft 384 kts 62°
2026-05-06 14:31 35.51803 25.68089 18287 ft 387 kts 62°
2026-05-06 14:31 35.52897 25.71135 18887 ft 391 kts 62°
2026-05-06 14:32 35.54000 25.74205 19485 ft 395 kts 62°
2026-05-06 14:32 35.55104 25.77273 20087 ft 399 kts 62°
2026-05-06 14:32 35.56231 25.80404 20682 ft 403 kts 62°
2026-05-06 14:32 35.57366 25.83563 21258 ft 406 kts 62°
2026-05-06 14:33 35.58517 25.86763 21853 ft 410 kts 62°
2026-05-06 14:33 35.59669 25.89996 22410 ft 414 kts 62°
2026-05-06 14:33 35.60811 25.93233 22924 ft 418 kts 62°
2026-05-06 14:33 35.61964 25.96526 23071 ft 419 kts 62°
2026-05-06 14:34 35.63117 25.99823 23106 ft 421 kts 62°
2026-05-06 14:34 35.64270 26.03129 23105 ft 421 kts 62°
2026-05-06 14:34 35.65429 26.06453 23104 ft 421 kts 62°
2026-05-06 14:34 35.66586 26.09768 23103 ft 421 kts 62°
2026-05-06 14:35 35.67743 26.13071 23101 ft 421 kts 62°
2026-05-06 14:35 35.68887 26.16334 23104 ft 421 kts 62°
2026-05-06 14:35 35.70048 26.19648 23096 ft 421 kts 62°
2026-05-06 14:35 35.71213 26.22981 23097 ft 421 kts 62°
2026-05-06 14:36 35.72367 26.26295 23099 ft 421 kts 62°
2026-05-06 14:36 35.73508 26.29579 23104 ft 421 kts 62°
2026-05-06 14:36 35.74658 26.32900 23107 ft 422 kts 62°
2026-05-06 14:36 35.75806 26.36217 23101 ft 422 kts 63°
2026-05-06 14:37 35.76964 26.39560 23108 ft 422 kts 62°
2026-05-06 14:37 35.78114 26.42883 23106 ft 422 kts 62°
2026-05-06 14:37 35.79254 26.46184 23110 ft 422 kts 62°
2026-05-06 14:37 35.80405 26.49519 23109 ft 422 kts 62°
2026-05-06 14:38 35.81555 26.52850 23114 ft 422 kts 62°
2026-05-06 14:38 35.82703 26.56177 23108 ft 422 kts 62°
2026-05-06 14:38 35.83852 26.59510 23112 ft 422 kts 62°
2026-05-06 14:38 35.85023 26.62832 23108 ft 421 kts 61°
2026-05-06 14:39 35.86293 26.66076 23112 ft 420 kts 58°
2026-05-06 14:39 35.87643 26.69272 23107 ft 419 kts 57°
2026-05-06 14:39 35.89031 26.72440 23105 ft 419 kts 57°
2026-05-06 14:39 35.90413 26.75581 23101 ft 420 kts 57°
2026-05-06 14:40 35.91625 26.78898 23107 ft 423 kts 63°
2026-05-06 14:40 35.92734 26.82241 23105 ft 423 kts 63°
2026-05-06 14:40 35.93827 26.85608 23108 ft 424 kts 64°
2026-05-06 14:40 35.94922 26.89016 23109 ft 424 kts 64°
2026-05-06 14:41 35.95991 26.92358 23105 ft 424 kts 64°
2026-05-06 14:41 35.97080 26.95769 23105 ft 424 kts 64°
2026-05-06 14:41 35.98152 26.99109 23106 ft 424 kts 63°
2026-05-06 14:41 35.99244 27.02499 23102 ft 424 kts 63°
2026-05-06 14:42 36.00338 27.05891 23096 ft 424 kts 63°
2026-05-06 14:42 36.01429 27.09280 23098 ft 424 kts 63°
2026-05-06 14:42 36.02503 27.12624 23099 ft 424 kts 63°
2026-05-06 14:42 36.03594 27.16022 23101 ft 424 kts 63°
2026-05-06 14:43 36.04679 27.19413 23101 ft 424 kts 63°
2026-05-06 14:43 36.05765 27.22795 23101 ft 424 kts 63°
2026-05-06 14:43 36.06854 27.26179 23101 ft 424 kts 63°
2026-05-06 14:43 36.07943 27.29569 23102 ft 424 kts 63°
2026-05-06 14:44 36.09025 27.32956 23098 ft 424 kts 63°
2026-05-06 14:44 36.10105 27.36349 23101 ft 424 kts 63°
2026-05-06 14:44 36.11193 27.39738 23097 ft 424 kts 63°
2026-05-06 14:45 36.13421 27.46443 22111 ft 418 kts 62°
2026-05-06 14:45 36.14538 27.49745 21600 ft 413 kts 62°
2026-05-06 14:45 36.15271 27.51909 21253 ft 411 kts 62°
2026-05-06 14:45 36.16734 27.56238 20570 ft 405 kts 63°
2026-05-06 14:46 36.17449 27.58361 20230 ft 402 kts 63°
2026-05-06 14:46 36.18694 27.61417 19727 ft 393 kts 54°
2026-05-06 14:46 36.20081 27.64315 19197 ft 390 kts 55°
2026-05-06 14:46 36.21424 27.67138 18680 ft 386 kts 55°
2026-05-06 14:47 36.22777 27.70001 18104 ft 383 kts 55°
2026-05-06 14:47 36.24111 27.72836 17547 ft 378 kts 55°
2026-05-06 14:47 36.25426 27.75638 16993 ft 373 kts 55°
2026-05-06 14:47 36.26534 27.78537 16437 ft 376 kts 70°
2026-05-06 14:48 36.26824 27.81767 15768 ft 383 kts 91°
2026-05-06 14:48 36.26101 27.84976 15004 ft 394 kts 116°
2026-05-06 14:48 36.24470 27.87689 14403 ft 394 kts 131°
2026-05-06 14:48 36.22709 27.90276 13734 ft 391 kts 126°
2026-05-06 14:49 36.21189 27.93045 13055 ft 387 kts 118°
2026-05-06 14:49 36.19957 27.96016 12420 ft 380 kts 111°
2026-05-06 14:49 36.19089 27.99022 11845 ft 372 kts 103°
2026-05-06 14:49 36.18544 28.02151 11288 ft 363 kts 96°
2026-05-06 14:50 36.18318 28.05185 10766 ft 355 kts 89°
2026-05-06 14:50 36.18361 28.08190 10504 ft 340 kts 83°
2026-05-06 14:50 36.18631 28.11017 10385 ft 323 kts 77°
2026-05-06 14:50 36.19104 28.13671 10266 ft 308 kts 71°
2026-05-06 14:51 36.19756 28.16132 10124 ft 295 kts 65°
2026-05-06 14:51 36.20571 28.18425 9891 ft 287 kts 60°
2026-05-06 14:51 36.21541 28.20581 9511 ft 287 kts 55°
2026-05-06 14:51 36.22663 28.22601 9114 ft 282 kts 50°
2026-05-06 14:52 36.23907 28.24460 8591 ft 279 kts 45°
2026-05-06 14:52 36.25260 28.26158 8098 ft 275 kts 40°
2026-05-06 14:52 36.26710 28.27682 7641 ft 271 kts 36°
2026-05-06 14:52 36.28245 28.29029 7140 ft 269 kts 31°
2026-05-06 14:53 36.29848 28.30198 6695 ft 266 kts 27°
2026-05-06 14:53 36.31510 28.31182 6209 ft 264 kts 22°
2026-05-06 14:53 36.33224 28.32003 5700 ft 263 kts 18°
2026-05-06 14:53 36.34967 28.32663 5235 ft 261 kts 13°
2026-05-06 14:54 36.36737 28.33118 4781 ft 259 kts
2026-05-06 14:54 36.38516 28.33373 4320 ft 256 kts
2026-05-06 14:54 36.40293 28.33414 3846 ft 256 kts 357°
2026-05-06 14:54 36.42065 28.33248 3375 ft 254 kts 352°
2026-05-06 14:55 36.43805 28.32918 2928 ft 251 kts 348°
2026-05-06 14:55 36.45467 28.32350 2593 ft 241 kts 331°
2026-05-06 14:55 36.46541 28.30922 2538 ft 222 kts 292°
2026-05-06 14:55 36.46571 28.29099 2472 ft 210 kts 255°
2026-05-06 14:56 36.46030 28.27499 2396 ft 188 kts 251°
2026-05-06 14:56 36.45605 28.26086 2321 ft 160 kts 254°
2026-05-06 14:56 36.45268 28.24902 2226 ft 137 kts 255°
2026-05-06 14:56 36.44967 28.23824 2163 ft 129 kts 256°
2026-05-06 14:57 36.44676 28.22770 2075 ft 129 kts 256°
2026-05-06 14:57 36.44379 28.21722 2024 ft 128 kts 255°
2026-05-06 14:57 36.44075 28.20680 1873 ft 131 kts 254°
2026-05-06 14:57 36.43761 28.19594 1681 ft 135 kts 255°
2026-05-06 14:58 36.43426 28.18485 1435 ft 138 kts 254°
2026-05-06 14:58 36.43110 28.17377 1294 ft 135 kts 255°
2026-05-06 14:58 36.42788 28.16279 1164 ft 136 kts 253°
2026-05-06 14:58 36.42461 28.15178 931 ft 136 kts 253°
2026-05-06 14:59 36.42156 28.14091 722 ft 129 kts 252°
2026-05-06 14:59 36.41860 28.13071 528 ft 122 kts 249°
2026-05-06 14:59 36.41580 28.12106 370 ft 117 kts 248°
2026-05-06 14:59 36.41282 28.11134 209 ft 122 kts 248°
2026-05-06 15:00 36.40987 28.10143 61 ft 122 kts 248°
2026-05-06 15:00 36.40718 28.09235 31 ft 94 kts 250°
2026-05-06 15:00 36.40554 28.08673 29 ft 44 kts 250°
2026-05-06 15:00 36.40472 28.08395 28 ft 35 kts 250°
2026-05-06 15:01 36.40382 28.08107 28 ft 34 kts 244°
2026-05-06 15:01 36.40268 28.07943 28 ft 17 kts 222°
2026-05-06 15:01 36.40191 28.07861 28 ft 14 kts 216°
2026-05-06 15:01 36.40152 28.07929 28 ft 15 kts 68°
2026-05-06 15:02 36.40188 28.08047 28 ft 13 kts 70°
2026-05-06 15:02 36.40222 28.08161 29 ft 15 kts 69°
2026-05-06 15:02 36.40260 28.08292 28 ft 17 kts 70°
2026-05-06 15:02 36.40302 28.08436 28 ft 18 kts 70°
2026-05-06 15:03 36.40346 28.08581 28 ft 19 kts 69°
2026-05-06 15:03 36.40384 28.08711 28 ft 13 kts 70°
2026-05-06 15:03 36.40401 28.08801 28 ft 11 kts 86°
2026-05-06 15:03 36.40397 28.08905 28 ft 12 kts 94°
2026-05-06 15:04 36.40402 28.09014 28 ft 14 kts 75°
2026-05-06 15:04 36.40396 28.09073 28 ft 7 kts 156°
2026-05-06 15:04 36.40350 28.09091 28 ft 0 kts 160°